Location: Lynch Observatory
(39.9540°N, 75.1861°W)
Time: 20:02:25
(UTC-04:00)

Tiangong 2 - Visible Passes

Search period start: 20 July 2018 00:00
Search period end: 30 July 2018 00:00
Orbit: 386 x 394 km, 42.8° (Epoch: 20 July)

Date Brightness Start Highest point End Pass type
(mag) Time Alt. Az. Time Alt. Az. Time Alt. Az.
20 Jul 1.2 21:38:31 10° WNW 21:41:43 71° NNE 21:43:42 21° E visible
20 Jul 4.0 23:15:39 10° W 23:16:01 12° W 23:16:01 12° W visible
21 Jul 1.5 22:17:45 10° W 22:20:44 46° SSW 22:20:44 46° SSW visible
22 Jul 1.1 21:19:58 10° WNW 21:23:10 76° SSW 21:25:28 17° ESE visible
22 Jul 4.0 22:57:42 10° WSW 22:57:47 10° WSW 22:57:47 10° WSW visible
23 Jul 2.5 21:59:25 10° W 22:02:07 25° SSW 22:02:33 25° SSW visible
24 Jul 1.8 21:01:27 10° W 21:04:30 43° SSW 21:07:21 11° SE visible
25 Jul 3.5 21:41:34 10° WSW 21:43:18 14° SW 21:44:31 12° SSW visible
